Regional Weather Roundup
Issued by NWS

Home | Current Version | Previous Version | Graphics & Text | Print | Product List | Glossary Off
Versions: 1 2 3 4 5 6 7 8 9 10 11 12 13 14 15 16 17 18 19 20 21 22 23 24 25 26 27 28 29 30 31 32 33 34 35 36 37 38 39 40 41 42 43 44 45 46 47 48 49 50

000
ASUS43 KTOP 301010
RWRKS

STATE WEATHER ROUNDUP
NATIONAL WEATHER SERVICE DODGE CITY KS
 FOR NATIONAL WEATHER SERVICE GOODLAND KS
500 AM CDT THU JUL 30 2015

NOTE:  "FAIR" INDICATES FEW OR NO CLOUDS BELOW 12,000 FEET WITH NO
SIGNIFICANT WEATHER AND/OR OBSTRUCTIONS TO VISIBILITY.

KSZ001>006-013>018-027>032-041>047-301100-
...NORTHWEST KANSAS...

CITY           SKY/WX    TMP DP  RH WIND       PRES   REMARKS
GOODLAND       CLEAR     60  56  86 S6        30.28S
HAYS           CLOUDY    68  55  64 NE8       30.21F
HILL CITY      CLOUDY    68  62  81 CALM      30.23F
RUSSELL        MOCLDY    66  60  81 N6        30.20S
$$

KSZ061>065-074>080-084>089-301100-
...SOUTHWEST KANSAS...

CITY           SKY/WX    TMP DP  RH WIND       PRES   REMARKS
DODGE CITY     CLOUDY    69  65  86 CALM      30.22S
ELKHART          N/A     65  61  87 SE5         N/A
GARDEN CITY    CLEAR     67  65  93 SE3       30.23S
GREAT BEND     CLOUDY    70  64  83 E5        30.19F
LIBERAL        PTCLDY    70  64  83 NE5       30.22F
PRATT          TSTM      66  64  94 E3        30.23R VSB 1
$$

KSZ066>073-081>083-090>101-301100-
...SOUTHEAST KANSAS...

CITY           SKY/WX    TMP DP  RH WIND       PRES   REMARKS
CHANUTE        CLOUDY    73  66  78 NE6       30.16S
COFFEYVILLE    MOCLDY    74  66  76 NE6       30.12F
HUTCHINSON     TSTM      71  66  84 E10       30.15F
MEDICINE LODGE   N/A     73  70  90 SE5       30.13S
PARSONS        MOCLDY    74  67  78 CALM      30.15F
WICHITA INTL   CLOUDY    75  66  73 E13       30.12F
WICHITA JABRA  MOCLDY    72  67  84 E6        30.13F
WICHITA MCCONL MOCLDY    73  65  76 E9        30.13F
WINFIELD       MOCLDY    74  67  78 E12       30.13F
$$

KSZ007>012-019>026-033>040-048>060-102>105-301100-
...NORTHEAST KANSAS...

CITY           SKY/WX    TMP DP  RH WIND       PRES   REMARKS
CONCORDIA      CLEAR     60  60 100 CALM      30.20F
EMPORIA        MOCLDY    69  67  93 E7        30.16F
LAWRENCE       PTCLDY    63  61  93 CALM      30.18S
MANHATTAN      CLEAR     64  63  96 CALM      30.18F
OLATHE IND     CLEAR     66  65  96 E3        30.19S
OLATHE EXE     CLEAR     69  65  86 CALM      30.18S
SALINA         MOCLDY    71  65  81 N6        30.18S
TOPEKA BILLARD FOG       65  65 100 CALM      30.18S VSB 1/2
TOPEKA FORBES  CLEAR     67  63  87 CALM      30.18S
$$


USA.gov is the U.S. government's official web portal to all federal, state and local government web resources and services.